Wind_Speed
5 3 6 8 4 7 1 3 4 5 4 5 7 5 4 4 7 10 11 12 10 9 10 19 23 23 24 24 20 24 28 29 27 20 13 12 12 13 19 16 15 13 14 15
1 3 4 1 8 3 4 4 1 4 2 3 5 5 8 6 5 6 7 9 8 7 12 15 15 18 16 15 14 14 18 24 22 15 14 13 17 20 20 21 20 15 9 8
5 6 4 4 0 3 1 4 3 2 3 5 6 9 6 5 6 7 6 5 7 3 7 14 18 21 18 15 16 18 19 15 15 20 21 13 20 23 26 19 15 13 12 14
2 0 4 4 1 5 2 2 4 4 2 6 10 10 11 9 8 9 7 6 5 7 8 6 11 17 16 17 20 20 16 15 17 18 17 18 20 20 18 18 17 17 15 10
3 3 3 4 6 5 4 5 3 5 5 9 12 11 11 9 9 9 8 7 8 9 8 7 7 12 16 13 13 14 17 17 20 19 18 21 24 23 21 16 14 12 9 7
3 2 4 4 2 4 5 5 3 5 9 11 2 8 2 5 8 9 10 10 10 10 9 10 6 7 12 15 19 15 11 11 13 15 15 19 16 12 9 12 13 13 11 8
1 2 6 5 1 3 3 6 5 9 4 5 5 4 9 7 9 10 10 12 14 14 13 10 7 9 12 17 11 10 13 8 5 7 17 18 17 14 10 12 14 13 11 8
2 1 3 1 1 5 4 2 4 2 1 2 7 11 8 8 6 7 9 12 14 17 16 12 11 14 18 20 14 12 13 12 5 6 8 14 13 11 13 15 16 15 12 8
6 5 5 4 5 3 4 3 3 5 6 3 12 10 6 6 5 6 9 10 16 18 18 16 15 15 19 15 14 14 17 18 14 13 7 9 8 9 10 13 16 14 11 8
2 3 3 4 4 2 4 3 4 4 6 5 6 7 5 5 7 6 8 11 15 15 17 18 16 17 16 13 15 16 19 19 15 12 10 8 7 6 8 10 10 10 8 7
1 3 4 3 3 3 4 7 6 7 5 5 6 6 5 5 7 8 11 14 13 12 15 15 15 15 12 12 11 14 15 14 13 12 10 10 8 6 5 6 6 6 6 6
5 8 5 5 3 0 5 6 8 8 7 6 5 6 10 6 10 10 12 11 10 8 11 11 12 12 10 9 10 11 12 10 8 8 8 8 7 7 5 4 3 2 2 1
3 6 5 6 6 1 4 7 6 7 8 8 9 12 11 7 8 9 9 7 8 8 8 9 9 8 7 8 8 8 9 8 6 5 4 4 4 3 3 1 0 1 2 2
3 7 6 5 6 6 3 8 8 8 11 11 13 13 14 11 10 11 10 9 9 8 7 8 8 7 5 4 4 4 4 5 5 6 4 2 2 2 4 4 5 3 4 4
9 4 7 8 9 7 6 9 8 7 7 10 15 18 17 14 11 6 5 7 7 7 7 7 6 5 3 1 0 1 3 3 4 5 4 4 6 7 8 9 11 11 9 8
5 5 9 10 10 8 7 5 8 6 5 10 14 16 16 18 16 13 10 8 10 10 8 9 9 7 3 1 3 6 7 8 7 6 7 8 9 10 10 11 12 13 14 15
8 5 5 7 12 9 11 8 9 8 10 14 17 25 28 27 24 22 21 21 20 19 15 13 11 9 9 9 9 9 9 9 10 11 13 12 11 11 11 12 14 15 15 15
10 11 13 16 13 9 7 8 15 19 17 24 27 26 23 21 20 20 17 16 16 14 12 10 9 8 9 10 11 12 12 13 14 13 14 16 17 15 15 16 16 18 19 17
8 10 11 15 20 16 16 16 17 19 24 27 25 20 20 20 18 15 12 11 10 9 8 8 9 10 10 10 11 11 12 14 14 15 15 15 15 17 17 16 19 21 20 20
5 7 13 15 19 21 16 18 24 24 25 28 25 24 21 17 15 13 10 10 8 6 6 8 9 9 9 10 11 11 13 13 14 15 15 15 15 16 18 18 19 20 23 23
9 12 13 16 17 21 23 31 29 22 23 27 27 24 24 19 17 17 14 9 5 3 6 7 7 8 10 10 11 11 12 13 14 15 15 15 16 17 18 20 21 22 23 24
9 11 14 18 20 20 24 25 24 26 28 27 25 25 24 21 18 14 11 9 7 3 4 5 6 8 8 9 10 10 11 12 12 13 13 15 17 18 19 19 20 21 21 23
16 17 20 20 21 23 27 28 29 32 30 28 27 25 25 24 20 17 10 9 6 4 6 7 8 9 10 11 11 11 10 10 11 11 13 15 14 13 15 17 18 16 12 9
16 17 17 21 26 24 18 23 30 31 29 26 25 23 25 22 18 14 8 11 7 4 6 8 7 8 11 13 15 16 13 11 11 11 11 11 12 16 17 15 13 11 10 11
20 21 22 23 21 18 22 29 29 27 23 21 21 23 24 21 20 19 13 13 9 7 6 3 3 3 6 10 13 13 13 12 10 11 12 14 18 20 17 15 13 12 13 13
20 19 23 28 26 27 28 31 23 26 24 22 22 27 24 20 15 10 12 14 13 11 10 9 6 4 3 4 6 7 8 8 10 10 12 17 19 19 15 13 10 9 9 9
16 20 20 16 20 26 31 28 25 26 28 28 28 27 24 21 18 15 14 14 18 17 14 12 11 9 8 7 7 8 8 9 10 12 13 17 17 14 12 9 8 8 6 5
Wind_Direction
175 271 86 254 353 357 72 99 179 284 314 324 316 324 323 143 131 138 154 159 166 164 163 179 188 194 196 202 196 207 208 206 203 195 202 225 247 266 262 271 269 257 243 234
66 97 268 337 30 344 15 19 5 315 7 323 0 58 56 71 113 146 164 192 180 162 171 174 186 179 183 189 190 203 211 196 179 203 232 256 248 255 248 258 256 248 243 264
169 298 37 336 290 56 226 359 310 335 239 289 49 64 53 75 108 113 81 78 80 89 138 175 183 189 192 202 201 212 207 196 199 222 224 235 243 248 254 228 218 227 242 256
259 66 183 282 182 152 229 253 311 259 214 105 100 82 62 53 79 83 83 86 75 88 114 128 173 174 176 197 208 204 204 207 210 203 220 228 235 223 218 215 216 224 221 221
199 183 274 163 212 155 147 277 186 241 153 143 116 92 62 62 63 69 65 52 65 81 99 119 129 163 178 180 201 208 211 209 207 223 220 223 221 218 210 202 201 198 182 174
128 93 216 248 180 94 91 295 180 212 179 168 266 96 136 120 102 91 90 77 67 65 80 86 87 191 187 187 188 186 183 210 225 226 226 221 206 176 189 174 174 165 158 157
130 198 281 251 210 88 118 244 153 204 202 169 164 175 151 142 106 105 103 97 91 81 64 57 72 132 117 132 120 188 213 216 229 228 210 187 169 164 160 159 161 163 163 154
104 136 282 139 118 173 219 355 146 182 284 90 94 104 88 71 83 103 99 100 98 90 76 68 84 106 92 84 98 113 128 159 164 199 143 143 150 151 167 171 170 166 163 154
171 218 251 264 224 266 198 144 174 126 68 82 115 110 109 115 116 107 96 105 102 95 85 80 82 89 91 85 101 107 103 100 117 133 109 105 129 150 161 182 179 167 170 170
87 294 286 323 293 210 145 127 143 113 114 108 114 107 132 124 111 99 113 118 103 102 94 86 85 88 92 98 98 98 98 101 105 107 106 113 109 125 138 152 164 167 176 196
352 298 325 309 297 329 85 99 93 114 124 126 128 128 133 120 107 139 115 89 92 100 101 109 109 100 97 93 92 91 92 94 97 99 96 96 104 115 124 142 160 173 189 210
209 202 165 203 190 74 136 128 143 138 142 136 158 144 133 115 123 120 118 114 109 100 104 106 102 101 105 102 100 103 101 97 94 98 104 112 117 112 111 105 108 111 138 154
221 162 181 155 136 89 130 133 166 163 155 155 153 138 126 125 139 136 125 114 103 104 104 97 96 95 92 85 71 71 84 87 88 85 100 97 93 91 72 67 79 254 280 284
172 118 69 149 174 179 161 118 115 108 128 138 132 144 141 130 143 153 152 143 130 122 108 93 87 77 66 62 57 65 50 21 2 359 332 288 276 297 286 290 288 279 265 266
186 265 165 121 120 128 153 120 93 93 106 104 132 137 146 146 137 127 117 124 133 133 120 114 100 84 83 103 115 310 307 312 319 310 293 275 267 277 281 270 275 265 268 263
144 111 130 132 146 142 131 120 118 121 118 118 122 133 136 125 117 111 112 124 111 88 89 95 83 70 61 7 303 293 288 289 289 280 273 273 276 274 270 269 262 252 256 261
117 116 100 124 156 161 175 166 151 143 133 128 128 127 120 115 110 105 102 101 100 94 89 84 72 54 39 22 5 357 345 322 294 281 276 277 278 275 279 276 267 260 261 265
175 169 173 166 166 157 148 159 151 151 150 145 141 138 135 126 123 120 116 111 104 92 76 64 45 24 9 356 348 343 334 321 313 306 297 288 288 288 295 290 280 273 270 267
182 166 165 163 167 166 158 156 155 149 146 145 143 133 130 124 121 119 120 105 87 80 53 29 6 352 345 343 336 322 318 319 316 307 303 300 297 292 290 287 287 281 277 276
144 161 166 160 164 156 148 153 151 147 152 153 143 135 131 133 133 127 116 97 79 56 18 0 350 350 348 349 345 339 334 322 319 314 307 296 295 295 299 298 292 286 282 281
172 160 156 155 155 160 161 158 153 151 154 154 148 150 148 150 146 142 132 121 117 70 5 356 356 352 351 351 344 338 333 330 326 320 313 307 303 303 303 302 304 301 293 283
145 150 153 151 148 145 158 156 152 150 156 160 158 155 153 152 152 150 140 137 133 74 26 19 10 2 2 356 352 343 337 333 329 327 324 319 313 309 307 309 309 306 299 293
154 158 153 153 155 154 157 160 159 160 160 164 164 166 168 167 165 156 164 163 147 79 48 52 58 50 36 26 16 356 340 341 340 338 335 329 322 319 318 315 312 308 312 310
144 151 151 150 146 140 140 160 164 167 169 173 179 179 174 170 177 180 168 172 163 131 118 98 81 58 42 34 29 28 29 26 19 12 7 355 337 325 320 318 312 310 311 279
151 146 144 145 153 164 157 163 165 170 175 180 185 184 181 179 178 187 194 187 186 187 188 173 159 35 36 28 28 32 43 44 31 10 345 330 325 316 314 324 315 301 296 284
148 159 164 167 168 162 161 165 166 175 177 180 187 184 185 190 195 193 198 204 206 212 219 226 226 262 318 346 8 18 20 18 13 358 347 346 342 349 335 322 328 323 300 310
145 148 145 144 164 163 167 171 167 179 187 186 185 189 193 199 207 219 232 226 221 221 228 234 243 255 273 290 308 323 329 335 342 338 342 348 353 353 360 341 333 336 332 319
Height
792 790 790 803 792 787 786 797 793 789 787 780 771 764 762 760 759 762 766 771 775 779 783 788 793 796 800 805 808 810 814 817 820 827 830 833 833 837 840 844 845 846 845 845
794 787 786 793 788 787 789 791 791 790 783 771 768 762 764 762 765 767 770 771 776 781 783 787 789 794 799 804 805 811 813 814 819 823 826 829 831 833 838 840 842 842 843 842
805 798 785 801 794 793 790 787 790 793 784 772 776 772 769 766 766 772 774 776 778 782 782 785 790 794 798 802 805 809 812 814 816 820 822 825 828 831 835 836 838 840 839 839
806 799 819 792 785 785 788 786 788 782 776 775 777 776 773 771 771 775 777 779 782 783 786 789 792 793 795 798 802 807 808 810 812 816 819 822 827 829 832 833 834 837 838 837
812 815 805 791 787 785 789 788 781 782 775 774 775 775 781 782 781 781 783 784 787 787 789 789 790 791 794 798 802 804 805 807 810 812 816 819 822 825 827 829 831 834 836 837
818 811 813 791 778 771 781 801 776 778 772 774 780 786 787 786 786 786 787 788 788 790 790 789 790 791 793 793 801 802 805 808 809 811 812 816 820 823 825 825 829 832 835 837
818 815 805 786 777 774 802 798 776 774 772 777 779 777 779 785 786 788 790 789 790 791 793 793 791 792 795 796 800 800 803 805 810 809 811 815 818 821 824 825 829 832 835 836
822 813 804 781 780 788 781 776 775 776 775 778 779 782 787 789 790 792 792 792 792 794 796 797 795 795 797 797 801 802 804 804 805 815 803 810 817 820 823 824 828 832 834 836
806 805 786 781 778 773 774 774 775 775 778 783 781 787 791 793 795 796 796 797 794 795 799 801 801 800 800 803 805 806 806 808 812 811 812 816 821 823 824 828 830 832 834 836
793 784 779 777 773 770 769 772 773 775 779 784 789 789 794 793 794 799 800 801 799 800 801 803 805 806 808 810 808 810 813 816 818 819 821 822 825 826 826 828 831 832 834 836
792 783 780 776 771 771 771 773 776 779 782 786 790 793 796 797 797 802 800 796 800 806 807 809 807 810 814 813 813 813 814 818 821 822 824 826 828 831 830 832 834 833 833 835
790 775 778 775 770 772 772 775 779 780 786 789 793 795 797 798 799 800 801 805 808 810 810 812 812 814 818 819 818 818 819 821 824 825 826 829 833 833 834 835 836 835 834 835
764 766 768 768 772 774 774 775 777 780 783 788 791 793 796 799 802 805 808 810 809 812 814 814 816 818 820 820 821 823 823 825 827 829 831 831 831 833 835 836 833 835 835 834
762 763 771 770 775 774 775 777 779 780 783 787 790 794 797 800 805 808 810 811 812 813 815 818 820 821 822 824 824 825 826 827 829 829 830 831 832 832 832 832 833 833 834 834
761 759 759 766 772 776 779 779 782 785 787 790 793 796 800 803 805 807 808 810 812 815 817 819 821 823 824 825 827 827 828 829 829 830 831 831 830 830 830 830 830 831 832 833
760 762 762 767 773 778 779 783 785 789 790 792 794 798 802 804 807 810 811 812 814 816 819 821 823 825 825 826 827 827 828 829 830 830 831 831 830 828 828 828 828 828 829 829
761 768 769 773 774 777 778 779 781 786 791 793 797 800 804 807 810 813 815 816 817 819 821 822 823 824 824 824 824 824 825 826 826 825 826 827 826 827 827 827 826 826 826 825
745 749 754 759 769 775 779 781 783 786 790 795 799 802 806 807 810 814 817 819 820 821 823 824 824 824 824 824 823 823 823 823 823 823 823 823 823 823 823 823 824 825 824 823
745 748 753 758 763 768 773 779 783 786 791 794 798 802 805 808 811 815 818 820 821 822 824 824 824 823 823 823 822 821 821 820 819 818 818 819 819 819 819 820 820 820 819 818
745 748 752 757 763 767 773 778 782 788 792 795 800 804 808 812 815 818 820 822 823 824 824 824 823 823 822 821 820 819 819 818 818 817 817 817 816 817 817 816 816 814 814 812
742 747 752 756 762 767 771 774 781 788 792 796 799 805 809 814 817 819 822 823 825 825 825 824 823 822 821 820 819 818 817 816 815 814 814 813 813 812 812 810 809 808 807 807
741 746 751 756 761 767 772 776 781 786 792 798 803 807 811 815 818 820 822 824 825 826 825 825 824 823 821 820 818 817 816 815 814 813 812 812 811 810 808 807 806 804 802 800
739 744 749 754 759 765 771 777 781 786 792 798 802 806 809 812 816 818 821 824 825 825 825 824 824 824 823 821 820 817 815 814 813 812 810 810 809 808 807 805 803 801 798 796
739 745 749 754 759 766 773 778 782 788 792 797 800 804 807 812 816 818 820 822 824 825 825 825 825 825 824 822 820 818 815 814 813 811 810 810 809 807 804 801 799 798 796 795
738 744 749 755 760 765 771 777 783 789 794 798 802 805 808 811 814 817 819 821 823 824 824 824 824 824 823 822 821 819 817 815 813 811 811 810 807 804 801 799 797 795 794 794
739 743 747 751 755 762 769 776 782 788 793 797 801 804 807 810 812 815 816 819 821 822 823 823 824 823 823 822 820 819 817 816 814 813 812 809 805 800 797 796 795 794 793 792
740 744 749 755 759 762 767 773 779 785 789 793 796 801 804 807 809 811 813 814 816 818 820 820 820 821 820 820 818 817 816 814 813 812 810 808 804 800 798 796 795 794 793 792